FW7718 Weather Reports


time (UTC)temp
C
wind
direction
speed
KPH
gust
KPH
rain 1hr
cm
rain 24hr
cm
rain mn
cm
humidity
%
barometer
mb
20260508085057 15 177 8.0 9.7 0.00 0.00 0.00 93 1015.8
20260508084553 15 134 4.8 8.0 0.00 0.00 0.00 94 1016.1
20260508084050 15 207 4.8 4.8 0.00 0.00 0.00 94 1016.5
20260508083547 15 205 4.8 4.8 0.00 0.00 0.00 95 1016.5
20260508083044 15 232 6.4 8.0 0.00 0.00 0.00 95 1016.9
20260508082540 15 236 4.8 8.0 0.00 0.00 0.00 95 1016.8
20260508082037 14 191 3.2 3.2 0.00 0.00 0.00 95 1016.8
20260508081535 14 54 0.0 0.0 0.00 0.00 0.00 95 1016.5
20260508081031 14 52 1.6 1.6 0.00 0.00 0.00 95 1016.5
20260508080529 13 71 1.6 1.6 0.00 0.00 0.00 95 1016.7
20260508080026 13 71 0.0 0.0 0.00 0.00 0.00 95 1016.6
20260508075522 13 71 0.0 0.0 0.00 0.00 0.00 95 1016.6
20260508075020 13 71 0.0 1.6 0.00 0.00 0.00 95 1016.7
20260508074518 13 71 0.0 1.6 0.00 0.00 0.00 94 1016.5
20260508074014 13 71 1.6 1.6 0.00 0.00 0.00 94 1016.1
20260508073511 13 72 1.6 1.6 0.00 0.00 0.00 94 1016.2
20260508073009 13 72 1.6 1.6 0.00 0.00 0.00 95 1016.6
20260508072504 13 71 1.6 1.6 0.00 0.00 0.00 94 1016.8
20260508072002 13 71 1.6 1.6 0.00 0.00 0.00 94 1016.8
20260508071500 13 71 0.0 1.6 0.00 0.00 0.00 93 1017.0
20260508070957 13 71 0.0 0.0 0.00 0.00 0.00 93 1016.8
20260508070455 14 70 0.0 1.6 0.00 0.00 0.00 94 1016.9
20260508065953 14 71 0.0 0.0 0.00 0.00 0.00 94 1017.3
20260508065450 14 71 0.0 1.6 0.00 0.00 0.00 94 1017.3
20260508064949 14 70 0.0 1.6 0.00 0.00 0.00 94 1017.3
20260508064446 14 72 3.2 3.2 0.00 0.00 0.00 94 1017.0
20260508063943 14 73 0.0 0.0 0.00 0.00 0.00 93 1017.3
20260508063440 14 73 0.0 0.0 0.00 0.00 0.00 93 1017.0
20260508062938 14 73 0.0 0.0 0.00 0.00 0.00 93 1017.2
20260508062436 14 73 0.0 0.0 0.00 0.00 0.00 93 1017.1
20260508061932 14 73 0.0 0.0 0.00 0.00 0.00 93 1017.1
20260508061430 14 73 0.0 0.0 0.00 0.00 0.00 93 1017.0
20260508060926 14 73 0.0 0.0 0.00 0.00 0.00 93 1017.1
20260508060424 14 73 0.0 0.0 0.00 0.00 0.00 92 1017.5
20260508055919 14 73 0.0 0.0 0.00 0.00 0.00 92 1017.3
20260508055416 14 73 0.0 0.0 0.00 0.00 0.00 92 1017.4
20260508054913 14 73 1.6 1.6 0.00 0.00 0.00 92 1017.5
20260508054410 14 73 0.0 0.0 0.00 0.00 0.00 92 1017.5
20260508053907 14 73 0.0 0.0 0.00 0.00 0.00 92 1017.4
20260508053404 14 73 0.0 0.0 0.00 0.00 0.00 91 1017.3
20260508052902 15 73 1.6 1.6 0.00 0.00 0.00 91 1017.3
20260508052359 15 73 0.0 1.6 0.00 0.00 0.00 91 1017.5
20260508051855 15 73 0.0 1.6 0.00 0.00 0.00 91 1017.4
20260508051351 15 73 1.6 1.6 0.00 0.00 0.00 91 1017.5
20260508050847 15 73 0.0 0.0 0.00 0.00 0.00 91 1017.4
20260508050344 14 73 1.6 1.6 0.00 0.00 0.00 91 1017.5
20260508045840 14 73 0.0 0.0 0.00 0.00 0.00 91 1017.5
20260508045338 14 73 0.0 0.0 0.00 0.00 0.00 91 1017.5
20260508044836 14 73 0.0 0.0 0.00 0.00 0.00 91 1017.4
20260508044331 14 73 0.0 0.0 0.00 0.00 0.00 90 1017.2
20260508043828 14 73 0.0 0.0 0.00 0.00 0.00 90 1017.2
20260508043325 15 73 0.0 0.0 0.00 0.00 0.00 90 1017.3
20260508042821 15 73 1.6 1.6 0.00 0.00 0.00 90 1017.2
20260508042319 15 73 1.6 1.6 0.00 0.00 0.00 90 1017.3
20260508041816 15 76 0.0 1.6 0.00 0.00 0.00 90 1017.1
20260508041312 15 76 0.0 0.0 0.00 0.00 0.00 90 1017.0
20260508040809 15 76 0.0 0.0 0.00 0.00 0.00 89 1017.4
20260508040307 15 76 0.0 0.0 0.00 0.00 0.00 89 1017.2
20260508035803 15 76 0.0 0.0 0.00 0.00 0.00 87 1017.5
20260508035301 15 76 0.0 0.0 0.00 0.00 0.00 87 1017.4
20260508034757 15 75 1.6 1.6 0.00 0.00 0.00 87 1017.3
20260508034255 15 180 1.6 1.6 0.00 0.00 0.00 87 1017.4
20260508033752 15 182 1.6 1.6 0.00 0.00 0.00 87 1017.4
20260508033250 15 182 0.0 0.0 0.00 0.00 0.00 87 1017.5
20260508032747 15 182 0.0 0.0 0.00 0.00 0.00 86 1017.2
20260508032244 15 182 0.0 0.0 0.00 0.00 0.00 86 1017.1
20260508031741 15 182 0.0 0.0 0.00 0.00 0.00 86 1017.0
20260508031237 15 182 0.0 0.0 0.00 0.00 0.00 85 1017.1
20260508030734 15 182 0.0 0.0 0.00 0.00 0.00 85 1017.0
20260508030231 15 182 0.0 0.0 0.00 0.00 0.00 85 1017.2
20260508025727 15 182 0.0 0.0 0.00 0.00 0.00 84 1017.2
20260508025225 15 182 0.0 0.0 0.00 0.00 0.00 84 1017.3
20260508024720 15 182 0.0 0.0 0.00 0.00 0.00 83 1017.1
20260508024218 16 182 0.0 0.0 0.00 0.00 0.00 83 1017.0
20260508023714 16 182 0.0 0.0 0.00 0.00 0.00 83 1016.7
20260508023212 16 182 0.0 0.0 0.00 0.00 0.00 83 1016.7
20260508022707 16 182 0.0 0.0 0.00 0.00 0.00 82 1016.9
20260508022205 16 182 0.0 0.0 0.00 0.00 0.00 82 1016.8
20260508021701 16 182 0.0 0.0 0.00 0.00 0.00 81 1016.7
20260508021156 16 182 0.0 0.0 0.00 0.00 0.00 78 1016.8
20260508020654 16 182 0.0 0.0 0.00 0.00 0.00 79 1016.7
20260508020151 16 182 0.0 0.0 0.00 0.00 0.00 79 1016.8
20260508015649 17 182 0.0 0.0 0.00 0.00 0.00 78 1016.9
20260508015146 17 182 0.0 1.6 0.00 0.00 0.00 78 1016.9
20260508014642 17 182 0.0 0.0 0.00 0.00 0.00 78 1016.9
20260508014138 17 182 1.6 1.6 0.00 0.00 0.00 77 1016.6
20260508013634 17 182 0.0 0.0 0.00 0.00 0.00 77 1016.6
20260508013131 17 183 1.6 3.2 0.00 0.00 0.00 77 1016.8
20260508012629 17 182 1.6 1.6 0.00 0.00 0.00 76 1016.7
20260508012126 17 182 1.6 1.6 0.00 0.00 0.00 76 1016.8
20260508011624 17 182 1.6 1.6 0.00 0.00 0.00 76 1016.7
20260508011121 17 183 3.2 3.2 0.00 0.00 0.00 75 1016.7
20260508010618 17 185 1.6 1.6 0.00 0.00 0.00 75 1016.5
20260508010116 18 176 3.2 3.2 0.00 0.00 0.00 74 1016.6
20260508005612 18 164 1.6 1.6 0.00 0.00 0.00 73 1016.7
20260508005109 18 160 1.6 1.6 0.00 0.00 0.00 72 1016.6
20260508004605 18 151 3.2 3.2 0.00 0.00 0.00 71 1016.5
20260508004102 18 190 3.2 3.2 0.00 0.00 0.00 71 1016.8
20260508003558 18 174 3.2 4.8 0.00 0.00 0.00 70 1016.6
20260508003056 18 190 4.8 4.8 0.00 0.00 0.00 70 1016.6
20260508002552 18 188 4.8 4.8 0.00 0.00 0.00 69 1016.8
20260508002050 18 182 4.8 4.8 0.00 0.00 0.00 68 1016.7
20260508001545 18 182 6.4 9.7 0.00 0.00 0.00 68 1016.6
20260508001041 19 146 4.8 4.8 0.00 0.00 0.00 67 1016.6
20260508000537 19 155 4.8 8.0 0.00 0.00 0.00 67 1016.5
20260508000035 19 194 6.4 8.0 0.00 0.00 0.00 67 1016.6
20260507235531 19 170 4.8 4.8 0.00 0.00 0.00 68 1016.5
20260507235029 19 190 8.0 9.7 0.00 0.00 0.00 67 1016.5
20260507234525 20 193 9.7 11.3 0.00 0.00 0.00 66 1016.7
20260507234022 20 179 6.4 9.7 0.00 0.00 0.00 66 1016.7
20260507233518 20 176 11.3 12.9 0.00 0.00 0.00 64 1016.7
20260507233017 20 181 11.3 12.9 0.00 0.00 0.00 64 1016.6
20260507232513 20 184 9.7 11.3 0.00 0.00 0.00 63 1016.7
20260507232010 21 188 6.4 8.0 0.00 0.00 0.00 62 1016.8
20260507231507 21 81 0.0 0.0 0.00 0.00 0.00 54 1016.5
20260507231004 21 81 0.0 0.0 0.00 0.00 0.00 51 1016.3
20260507230501 21 81 1.6 1.6 0.00 0.00 0.00 49 1016.6
20260507225956 21 81 0.0 0.0 0.00 0.00 0.00 53 1016.8
20260507225452 21 81 1.6 1.6 0.00 0.00 0.00 56 1016.6
20260507224949 21 82 3.2 3.2 0.00 0.00 0.00 49 1016.9
20260507224444 21 97 4.8 4.8 0.00 0.00 0.00 49 1016.7
20260507223941 21 90 3.2 3.2 0.00 0.00 0.00 48 1016.8
20260507223437 21 76 1.6 1.6 0.00 0.00 0.00 49 1016.7
20260507222935 21 66 4.8 4.8 0.00 0.00 0.00 51 1016.8
20260507222432 22 80 4.8 8.0 0.00 0.00 0.00 48 1016.8
20260507221928 22 60 3.2 3.2 0.00 0.00 0.00 51 1017.0
20260507221425 22 55 3.2 3.2 0.00 0.00 0.00 52 1016.9
20260507220920 22 70 4.8 4.8 0.00 0.00 0.00 50 1016.6
20260507220419 22 67 4.8 4.8 0.00 0.00 0.00 49 1016.8
20260507215915 22 92 3.2 3.2 0.00 0.00 0.00 51 1016.9
20260507215412 22 76 1.6 3.2 0.00 0.00 0.00 47 1016.9
20260507214909 22 94 1.6 1.6 0.00 0.00 0.00 44 1017.0
20260507214407 22 72 0.0 0.0 0.00 0.00 0.00 48 1016.9
20260507213902 22 37 1.6 1.6 0.00 0.00 0.00 47 1016.9
20260507213359 23 329 3.2 3.2 0.00 0.00 0.00 46 1016.9
20260507212856 22 29 1.6 3.2 0.00 0.00 0.00 49 1017.2
20260507212352 23 32 4.8 8.0 0.00 0.00 0.00 49 1017.2
20260507211848 23 37 4.8 8.0 0.00 0.00 0.00 49 1017.2
20260507211345 23 65 3.2 3.2 0.00 0.00 0.00 46 1017.1
20260507210842 22 321 6.4 8.0 0.00 0.00 0.00 47 1017.4
20260507210339 22 103 3.2 4.8 0.00 0.00 0.00 46 1017.0
20260507205835 22 114 6.4 8.0 0.00 0.00 0.00 49 1017.2
20260507205332 22 73 6.4 8.0 0.00 0.00 0.00 50 1017.1
20260507204828 22 63 3.2 4.8 0.00 0.00 0.00 49 1017.2
20260507204326 22 85 8.0 8.0 0.00 0.00 0.00 48 1017.5
20260507203824 22 90 1.6 3.2 0.00 0.00 0.00 50 1017.3
20260507203321 23 37 6.4 8.0 0.00 0.00 0.00 49 1017.7
20260507202817 23 47 4.8 4.8 0.00 0.00 0.00 49 1017.7
20260507202314 23 240 3.2 3.2 0.00 0.00 0.00 44 1017.5
20260507201809 23 41 4.8 8.0 0.00 0.00 0.00 49 1017.4
20260507201305 23 69 6.4 8.0 0.00 0.00 0.00 46 1017.6
20260507200802 23 133 0.0 0.0 0.00 0.00 0.00 45 1017.5
20260507200257 22 53 1.6 1.6 0.00 0.00 0.00 51 1017.6
20260507195754 22 62 4.8 8.0 0.00 0.00 0.00 47 1017.7
20260507195251 22 53 6.4 9.7 0.00 0.00 0.00 50 1017.9
20260507194749 23 62 6.4 9.7 0.00 0.00 0.00 49 1017.8
20260507194244 22 87 1.6 1.6 0.00 0.00 0.00 51 1018.1
20260507193741 22 43 4.8 4.8 0.00 0.00 0.00 51 1018.1
20260507193238 22 75 9.7 11.3 0.00 0.00 0.00 48 1018.0
20260507192734 22 13 6.4 9.7 0.00 0.00 0.00 53 1018.1
20260507192231 22 296 4.8 4.8 0.00 0.00 0.00 50 1018.3
20260507191727 22 258 4.8 4.8 0.00 0.00 0.00 50 1018.5
20260507191224 22 46 4.8 4.8 0.00 0.00 0.00 51 1018.3
20260507190721 22 351 9.7 11.3 0.00 0.00 0.00 52 1018.5
20260507190220 22 35 8.0 11.3 0.00 0.00 0.00 49 1018.3
20260507185718 22 19 4.8 8.0 0.00 0.00 0.00 52 1018.4
20260507185214 22 345 8.0 9.7 0.00 0.00 0.00 53 1018.3
20260507184712 22 39 8.0 12.9 0.00 0.00 0.00 56 1018.6
20260507184210 21 6 3.2 3.2 0.00 0.00 0.00 53 1018.8
20260507183706 21 42 4.8 9.7 0.00 0.00 0.00 54 1018.7
20260507183202 21 32 4.8 8.0 0.00 0.00 0.00 57 1019.1
20260507182700 21 59 1.6 3.2 0.00 0.00 0.00 57 1019.2
20260507182155 21 33 1.6 3.2 0.00 0.00 0.00 55 1019.2
20260507181652 21 17 8.0 11.3 0.00 0.00 0.00 52 1019.2
20260507181148 21 2 8.0 12.9 0.00 0.00 0.00 55 1019.3
20260507180639 21 36 6.4 11.3 0.00 0.00 0.00 57 1019.4
20260507180136 20 63 1.6 1.6 0.00 0.00 0.00 55 1019.3
20260507175632 21 333 6.4 8.0 0.00 0.00 0.00 58 1019.5
20260507175129 21 62 8.0 9.7 0.00 0.00 0.00 59 1019.5
20260507174626 20 49 4.8 8.0 0.00 0.00 0.00 62 1019.6
20260507174124 20 44 4.8 4.8 0.00 0.00 0.00 57 1019.9
20260507173621 20 0 8.0 8.0 0.00 0.00 0.00 59 1020.1
20260507173118 20 296 6.4 8.0 0.00 0.00 0.00 57 1020.1
20260507172613 20 41 4.8 4.8 0.00 0.00 0.00 58 1020.1
20260507172111 20 297 4.8 4.8 0.00 0.00 0.00 55 1020.3
20260507171606 20 62 3.2 3.2 0.00 0.00 0.00 57 1020.6
20260507171103 20 48 4.8 4.8 0.00 0.00 0.00 56 1020.5
20260507170600 20 52 4.8 8.0 0.00 0.00 0.00 60 1020.7
20260507170057 20 43 3.2 8.0 0.00 0.00 0.00 61 1020.9
20260507165552 20 232 3.2 3.2 0.00 0.00 0.00 59 1020.8
20260507165049 19 91 0.0 1.6 0.00 0.00 0.00 61 1020.7
20260507164546 19 55 3.2 3.2 0.00 0.00 0.00 61 1020.7
20260507164043 19 102 4.8 8.0 0.00 0.00 0.00 60 1020.7
20260507163540 18 98 3.2 3.2 0.00 0.00 0.00 59 1020.8
20260507163038 18 94 6.4 8.0 0.00 0.00 0.00 60 1021.1
20260507162533 18 59 9.7 11.3 0.00 0.00 0.00 59 1020.9
20260507162030 19 22 4.8 8.0 0.00 0.00 0.00 59 1020.8
20260507161526 19 146 1.6 1.6 0.00 0.00 0.00 60 1020.7
20260507161023 19 40 1.6 3.2 0.00 0.00 0.00 58 1021.2
20260507160519 19 351 8.0 9.7 0.00 0.00 0.00 61 1020.9
20260507160016 18 58 4.8 4.8 0.00 0.00 0.00 60 1021.1
20260507155511 18 19 3.2 4.8 0.00 0.00 0.00 60 1021.0
20260507155009 18 36 4.8 4.8 0.00 0.00 0.00 61 1021.0
20260507154505 18 83 3.2 3.2 0.00 0.00 0.00 64 1021.1
20260507154002 18 20 3.2 3.2 0.00 0.00 0.00 65 1021.1
20260507153459 18 34 8.0 9.7 0.00 0.00 0.00 63 1021.0
20260507152955 17 67 1.6 1.6 0.00 0.00 0.00 64 1021.1
20260507152451 17 23 3.2 3.2 0.00 0.00 0.00 66 1021.3
20260507151948 17 64 6.4 9.7 0.00 0.00 0.00 65 1021.3
20260507151444 17 70 0.0 0.0 0.00 0.00 0.00 65 1021.4
20260507150941 17 59 3.2 4.8 0.00 0.00 0.00 69 1021.3
20260507150438 17 54 3.2 3.2 0.00 0.00 0.00 71 1021.3
20260507145934 17 43 3.2 4.8 0.00 0.00 0.00 72 1021.6
20260507145430 16 75 1.6 1.6 0.00 0.00 0.00 72 1021.3
20260507144927 16 62 3.2 3.2 0.00 0.00 0.00 73 1021.6
20260507144424 16 58 4.8 4.8 0.00 0.00 0.00 75 1021.6
20260507143921 16 64 6.4 8.0 0.00 0.00 0.00 73 1021.7
20260507143418 16 57 1.6 3.2 0.00 0.00 0.00 76 1021.6
20260507142915 16 42 4.8 8.0 0.00 0.00 0.00 73 1021.5
20260507142410 16 54 3.2 3.2 0.00 0.00 0.00 76 1021.7
20260507141908 16 23 3.2 3.2 0.00 0.00 0.00 75 1022.0
20260507141404 15 22 3.2 3.2 0.00 0.00 0.00 76 1021.8
20260507140901 15 52 3.2 3.2 0.00 0.00 0.00 79 1022.1
20260507140357 15 56 3.2 3.2 0.00 0.00 0.00 81 1022.1
20260507135855 15 29 3.2 3.2 0.00 0.00 0.00 82 1022.1
20260507135352 15 29 4.8 8.0 0.00 0.00 0.00 84 1022.0
20260507134849 14 53 0.0 0.0 0.00 0.00 0.00 88 1022.0
20260507134345 13 37 3.2 3.2 0.00 0.00 0.00 88 1022.1
20260507133841 13 34 3.2 4.8 0.00 0.00 0.00 90 1022.0
20260507133337 13 15 4.8 8.0 0.00 0.00 0.00 91 1022.2
20260507132836 13 39 3.2 3.2 0.00 0.00 0.00 93 1022.0
20260507132332 13 29 4.8 4.8 0.00 0.00 0.00 94 1022.2
20260507131829 12 326 4.8 4.8 0.00 0.00 0.00 94 1021.7
20260507131326 12 23 4.8 4.8 0.00 0.00 0.00 95 1022.0
20260507130823 12 334 6.4 9.7 0.00 0.00 0.00 96 1022.1
20260507130320 12 331 3.2 3.2 0.00 0.00 0.00 96 1021.7
20260507125819 11 300 4.8 4.8 0.00 0.00 0.00 97 1021.5
20260507125316 11 317 3.2 3.2 0.00 0.00 0.00 97 1021.6
20260507124813 11 321 3.2 3.2 0.00 0.00 0.00 97 1021.6
20260507124309 11 326 4.8 4.8 0.00 0.00 0.00 97 1021.7
20260507123807 11 299 4.8 4.8 0.00 0.00 0.00 97 1021.6
20260507123259 11 305 4.8 4.8 0.00 0.00 0.00 97 1021.5
20260507122755 11 305 1.6 3.2 0.00 0.00 0.00 97 1021.4
20260507122250 10 302 3.2 3.2 0.00 0.00 0.00 97 1021.5
20260507121746 10 297 3.2 3.2 0.00 0.00 0.00 97 1021.4
20260507121242 10 298 3.2 3.2 0.00 0.00 0.00 97 1021.2
20260507120738 10 283 1.6 1.6 0.00 0.00 0.00 97 1021.3
20260507120236 10 276 1.6 1.6 0.00 0.00 0.00 97 1021.0
20260507115732 10 256 3.2 3.2 0.00 0.00 0.00 97 1021.0
20260507115228 10 296 3.2 3.2 0.00 0.00 0.00 97 1021.0
20260507114723 10 260 1.6 3.2 0.00 0.00 0.00 97 1021.3
20260507114221 9 298 3.2 3.2 0.00 0.00 0.00 97 1020.9
20260507113718 10 336 3.2 3.2 0.00 0.00 0.00 97 1020.7
20260507113215 10 10 3.2 3.2 0.00 0.00 0.00 97 1020.4
20260507112713 10 11 1.6 1.6 0.00 0.00 0.00 97 1020.1
20260507112210 10 14 1.6 1.6 0.00 0.00 0.00 97 1020.3
20260507111707 10 17 1.6 1.6 0.00 0.00 0.00 97 1020.1
20260507111204 10 17 1.6 1.6 0.00 0.00 0.00 97 1020.0
20260507110659 10 18 3.2 3.2 0.00 0.00 0.00 97 1020.1
20260507110156 10 18 1.6 1.6 0.00 0.00 0.00 97 1020.2
20260507105653 10 18 1.6 3.2 0.00 0.00 0.00 97 1019.8
20260507105149 10 19 1.6 1.6 0.00 0.00 0.00 97 1019.9
20260507104647 10 19 1.6 1.6 0.00 0.00 0.00 97 1019.8
20260507104142 10 19 1.6 1.6 0.00 0.00 0.00 97 1019.6
20260507103638 10 19 0.0 0.0 0.00 0.00 0.00 97 1019.5
20260507103135 10 19 0.0 0.0 0.00 0.00 0.00 97 1019.6
20260507102632 10 19 1.6 1.6 0.00 0.00 0.00 97 1019.8
20260507102123 10 19 0.0 0.0 0.00 0.00 0.00 97 1019.4
20260507101619 10 19 1.6 1.6 0.00 0.00 0.00 97 1019.5
20260507101114 10 19 0.0 0.0 0.00 0.00 0.00 97 1019.4
20260507100612 10 19 1.6 1.6 0.00 0.00 0.00 97 1019.2
20260507100110 10 19 3.2 3.2 0.00 0.00 0.00 97 1019.4
20260507095608 10 20 1.6 3.2 0.00 0.00 0.00 97 1019.3
20260507095104 10 22 1.6 1.6 0.00 0.00 0.00 97 1019.4
20260507094600 10 22 1.6 3.2 0.00 0.00 0.00 97 1019.6
20260507094057 10 22 0.0 1.6 0.00 0.00 0.00 97 1019.6
20260507093555 10 22 0.0 1.6 0.00 0.00 0.00 97 1019.4
20260507093054 10 23 1.6 1.6 0.00 0.00 0.00 97 1019.4
20260507092549 10 23 0.0 1.6 0.00 0.00 0.00 97 1019.4
20260507092040 10 23 0.0 0.0 0.00 0.00 0.00 97 1019.3
20260507091537 10 23 0.0 0.0 0.00 0.00 0.00 97 1019.3
20260507091033 10 23 0.0 0.0 0.00 0.00 0.00 97 1019.0
20260507090529 10 27 1.6 3.2 0.00 0.00 0.00 97 1019.1
20260507090026 10 29 1.6 1.6 0.00 0.00 0.00 97 1019.0
20260507085524 10 28 1.6 3.2 0.00 0.00 0.00 96 1019.1